Hourly Data Report for July 11, 2021

ALGONQUIN PARK EAST GATE
ONTARIO
Current Station Operator: ECCC - MSC

45°32'00.000" N
78°16'00.000" W
397.00 m
6080192
71581
TNK

Download Data

Hourly Data (July 2021)
Hourly Data Report for July 11, 2021
TIME
LST
Temp Definition
°C
Dew Point Definition
°C
Rel Hum Definition
%
Precip. Amount Definition
mm

Wind Dir Definition
10's deg

Wind Spd Definition
km/h
Visibility Definition
km
Stn Press Definition
kPa
Hmdx Definition


Wind Chill Definition


Weather Definition


00:00 11.2 10.5 96 0.0   0   97.15     LegendNANA
01:00 10.7 10.3 97 0.0   0   97.15     LegendNANA
02:00 9.9 9.4 97 0.0   0   97.15     LegendNANA
03:00 9.3 8.8 97 0.0   0   97.15     LegendNANA
04:00 8.8 8.4 97 0.0   0   97.15     LegendNANA
05:00 9.3 9.0 98 0.0   0   97.17     LegendNANA
06:00 10.6 10.2 98 0.0   0   97.19     LegendNANA
07:00 12.9 12.1 95 0.0   0   97.19     LegendNANA
08:00 17.2 13.6 79 0.0 21 2   97.18     LegendNANA
09:00 20.4 13.6 65 0.0 21 3   97.16     LegendNANA
10:00 22.3 11.6 51 0.0 10 2   97.13     LegendNANA
11:00 22.8 10.6 46 0.0 13 7   97.17     LegendNANA
12:00 22.9 11.7 49 0.0 18 5   97.18 25   LegendNANA
13:00 23.7 10.6 44 0.0 27 3   97.16 25   LegendNANA
14:00 23.7 10.3 43 0.0 21 4   97.17 25   LegendNANA
15:00 24.2 9.7 40 0.0 24 4   97.16 25   LegendNANA
16:00 24.5 10.5 41 0.0 26 3   97.13 26   LegendNANA
17:00 24.3 12.1 46 0.0 12 2   97.12 27   LegendNANA
18:00 23.6 13.3 52 0.0 12 4   97.12 27   LegendNANA
19:00 21.1 15.8 71 0.0 1 1   97.14 26   LegendNANA
20:00 18.5 15.4 82 0.0   0   97.14     LegendNANA
21:00 16.4 14.7 90 0.0 10 1   97.19     LegendNANA
22:00 14.8 13.6 93 0.0   0   97.24     LegendNANA
23:00 13.6 12.7 94 0.0   0   97.26     LegendNANA

Notes on Data Quality.

Legend

  • E = Estimated
  • M = Missing
  • NA = Not Available*
  • [empty] = Indicates an unobserved value
Date modified: